COSMOS 1275 DEB, 12671

Orbit data source: Space-Track

COSMOS 1275 DEB, 12671 is space debris in LEO originally from a launch on Thu, 04 Jun 1981 UTC launched from the Plesetsk Missile And Space Complex (PKMTR). Debris objects in space refer to the collection of defunct objects orbiting the Earth. Examples of debris include non-operational satellites, rocket bodies, and fragments generated from explosions, collisions, or faulty payload assembly.

Loading next visibility...
Identifier
12671, 1981-053AB
Orbit
LEO
Country
Flag of CISCIS
Related business
Manufacturer
Unknown
Mission
Spacecraft
Bus & Motor
Unknown
Mass
Unknown
Launch date (UTC)
1981-06-04 (44 years ago)
Launch vehicle
Unknown
Launch site
Plesetsk Missile And Space Complex (PKMTR)
Object type
Payload
Rocket body
Debris
Shape & HBR
Unknown
Radar Cross Section
Small (<0.1 m²)

Expand to show TLE details & history
Last TLE update: 8 hours ago

TLE from 8 hours ago
0 COSMOS 1275 DEB
1 12671U 81053AB  25242.87955589  .00002930  00000-0  16314-2 0  9996
2 12671  82.9048  58.9188 0020626  44.6150 315.6682 14.10605580238908
Epoch: 2025-08-30T21:06Z
TLE epoch observation values (Epoch: 2025-08-30T21:06:33.628Z)
Latitude
0.00001°
Longitude
122.97117°
Altitude
849.586 km
Speed
7.433 km/s
True Right ascension
03h 55m 40s
True Declination
0° 00' 00"
Sunlit
Object was in daylight at epoch
Visualization orbit readout
Latitude
Unknown
Longitude
Unknown
Altitude
Unknown
Speed
Unknown
Apparent Right ascension
Unknown
Apparent Declination
Unknown
Sunlit
N/A
Visualization observer readout
Local Sidereal Time
20:16:18
Azimuth
Unknown
Elevation
Unknown
Doppler factor
Unknown
Orbital elements
Apogee altitude
869.319 km
Perigee altitude
839.483 km
Semi-major axis
7,232.538 km
Eccentricity
0.00206
Inclination
82.9048°
RAAN
58.9188°
Arg. of periapsis
44.615°
True anomaly
315.50273°
Mean anomaly
315.6682°
Eccentric anomaly
315.58549°
Mean motion
3.52864 °/min
Orbital period
102.02 mins
BSTAR
0.0016314
Loading maneuver chart data...
Computing Atmospheric mass density...
Loading historical data...
Loading historical data...
Loading historical data...
Loading historical data...
Loading historical data...
Loading historical data...
Loading historical data...

Documentation

Showing up to 5 results
|